NOAA 16 DEB, 42359

Orbit data source: Space-Track

NOAA 16 DEB, 42359 is space debris in SSO originally from a launch on Thu, 21 Sep 2000 UTC launched from the Air Force Western Test Range (AFWTR). Debris objects in space refer to the collection of defunct objects orbiting the Earth. Examples of debris include non-operational satellites, rocket bodies, and fragments generated from explosions, collisions, or faulty payload assembly.

Loading next visibility...
Identifier
42359, 2000-055RB
Orbit
SSO
Country
Flag of USUS
Related business
Manufacturer
Unknown
Mission
Spacecraft
Bus & Motor
Unknown
Mass
Unknown
Launch date (UTC)
2000-09-21 (25 years ago)
Launch vehicle
Unknown
Launch site
Air Force Western Test Range (AFWTR)
Object type
Payload
Rocket body
Debris
Shape & HBR
Unknown
Radar Cross Section
Small (<0.1 m²)

Expand to show TLE details & history
Last TLE update: 2 days ago

TLE from 2 days ago
0 NOAA 16 DEB
1 42359U 00055RB  25257.26218584  .00004783  00000-0  14607-2 0  9992
2 42359  98.9636  55.6881 0015459 278.4660  81.4776 14.42307336490566
Epoch: 2025-09-14T06:17Z
TLE epoch observation values (Epoch: 2025-09-14T06:17:32.856Z)
Latitude
Longitude
-32.18252°
Altitude
752.205 km
Speed
7.479 km/s
True Right ascension
03h 42m 45s
True Declination
0° 00' 00"
Sunlit
Object was in partial shadow at epoch
Visualization orbit readout
Latitude
Unknown
Longitude
Unknown
Altitude
Unknown
Speed
Unknown
Apparent Right ascension
Unknown
Apparent Declination
Unknown
Sunlit
N/A
Visualization observer readout
Local Sidereal Time
20:07:48
Azimuth
Unknown
Elevation
Unknown
Doppler factor
Unknown
Orbital elements
Apogee altitude
759.043 km
Perigee altitude
737.01 km
Semi-major axis
7,126.163 km
Eccentricity
0.00155
Inclination
98.9636°
RAAN
55.6881°
Arg. of periapsis
278.466°
True anomaly
81.65284°
Mean anomaly
81.4776°
Eccentric anomaly
81.56522°
Mean motion
3.60794 °/min
Orbital period
99.78 mins
BSTAR
0.0014607
Loading maneuver chart data...
Computing Atmospheric mass density...
Loading historical data...
Loading historical data...
Loading historical data...
Loading historical data...
Loading historical data...
Loading historical data...
Loading historical data...

Documentation

Showing up to 5 results
|